Regional Weather Roundup
Issued by NWS Bismarck, ND

Home | Current Version | Previous Version | Text Only | Print | Product List | Glossary On
Versions: 1 2 3 4 5 6 7 8 9 10 11 12 13 14 15 16 17 18 19 20 21 22 23 24 25 26 27 28 29 30 31 32 33 34 35 36 37 38 39 40 41 42 43 44 45 46 47 48 49 50
000
ASUS43 KBIS 200310
RWRBIS

NWR BROADCAST TEXT
NATIONAL WEATHER SERVICE BISMARCK ND
1000 PM CDT THU APR 19 2018

NOTE: "FAIR" INDICATES FEW OR NO CLOUDS BELOW 12,000 FEET WITH NO
SIGNIFICANT WEATHER AND/OR OBSTRUCTIONS TO VISIBILITY.


CITY           SKY/WX    TMP DP  RH WIND       PRES   REMARKS
WILLISTON      MOCLDY    41  34  76 NE5       30.29R
MINOT          CLOUDY    39  34  82 SE3       30.32F
MINOT AFB      CLOUDY    35  34  97 S5        30.31F
BISMARCK       PTCLDY    40  33  76 E7        30.33R
DICKINSON      CLOUDY    42  31  64 E8        30.24R
GARRISON         N/A     39  34  82 E9        30.31S
HETTINGER ARPT CLOUDY    44  30  57 SE12      30.26R
JAMESTOWN      CLOUDY    40  31  70 E5        30.35S
CARRINGTON     FAIR      41  34  75 CALM      30.37S
HAZEN          FAIR      37  36  93 E3        30.33R
LINTON           N/A    N/A N/A N/A SE10      30.35R
MANDAN         FAIR      43  32  65 E9        30.32S
OAKES            N/A     41  32  70 S10       30.37S
RUGBY          FAIR      39  36  87 S5        30.34S
STANLEY          N/A     36  36 100 E5        30.33S FOG
TIOGA          FAIR      34  34 100 E8        30.31S
WATFORD CITY   FAIR      39  37  93 E13       30.28S
$$

CITY           SKY/WX    TMP DP  RH WIND       PRES   REMARKS
GRAND FORKS    FAIR      37  35  92 S7        30.37S
GRAND FORKS AF FAIR      39  33  79 SW7       30.37R
DEVILS LAKE    FAIR      37  32  82 CALM      30.36S
FARGO          FAIR      41  30  65 NE3       30.38S
CANDO          FAIR      37  37 100 SW7       30.37S
CAVALIER         N/A     45  37  76 CALM      30.35S
GRAFTON        FAIR      39  36  87 S6        30.38S
GWINNER          N/A     41  34  75 SW9       30.38R
LANGDON        FAIR      41  41 100 CALM      30.35S
ROLLA          FAIR      37  37 100 SW6       30.35R
WALHALLA       FAIR      39  39 100 CALM      30.35S
$$

CITY           SKY/WX    TMP DP  RH WIND       PRES   REMARKS
ABERDEEN       PTCLDY    36  28  73 S8        30.40R
MOBRIDGE       PTCLDY    41  31  67 SE9       30.31R
BUFFALO          N/A     47  30  51 E20       30.14R
RAPID CITY     CLOUDY    47  31  53 SE18      30.16R
GLASGOW        PTCLDY    48  36  63 E22       30.16R
SIDNEY         MOCLDY    47  36  65 E9        30.25R
WOLF POINT     MOCLDY    47  35  63 E14       30.21S
GLENDIVE       CLOUDY    50  30  46 E12       30.21R
MILES CITY     CLOUDY    54  33  45 E13       30.11S
BAKER          CLOUDY    46  33  60 SE17      30.20R
$$

CITY           SKY/WX    TMP DP  RH WIND       PRES   REMARKS
BILLINGS       CLOUDY    55  32  41 E9        30.01S
GREAT FALLS    PTCLDY    49  32  52 N8        30.05R
REGINA         PTCLDY    39  32  75 E14       30.29F
ESTEVAN        PTCLDY    36  27  69 SE8       30.31S
$$




USA.gov is the U.S. government's official web portal to all federal, state and local government web resources and services.